Location: Colebrook
(42.0017°N, 73.0973°W)
Time: 23:31:42
(UTC-05:00)

Amateur Radio Satellites - All Passes

Search period start: 21 February 2017 23:01
Search period end: 22 February 2017 23:01
Location: Colebrook, 42.0017°N, 73.0973°W

Satellite Date Start Highest point End Downlink Frequencies (MHz)
Time Altitude Azimuth
SPROUT 21 Feb 23:02:22 23:06:27 49° 73° (ENE) 23:10:35 437.525
ESTCUBE 1 21 Feb 23:16:56 23:20:56 31° 264° (W) 23:24:57 437.505/2401.250
SO-50 21 Feb 23:18:44 23:23:25 72° 305° (NW) 23:28:03 436.795
AIST 2D 21 Feb 23:22:58 23:26:33 84° 282° (WNW) 23:30:06 435.315
BUGSAT 1 21 Feb 23:31:05 23:34:00 18° 93° (E) 23:36:55 437.445
UNISAT 6 21 Feb 23:46:46 23:48:10 11° 300° (WNW) 23:49:33 437.425
TIGRISAT 21 Feb 23:48:11 23:49:46 12° 300° (WNW) 23:51:21 435.000
DUCHIFAT 1 21 Feb 23:51:45 23:56:03 89° 119° (ESE) 00:00:18 145.980
FO-29 21 Feb 23:51:48 23:58:52 40° 296° (WNW) 00:05:29 435.910
EO-79 21 Feb 23:57:46 00:02:02 66° 286° (WNW) 00:06:17 145.935-145.965
VELOX 1 22 Feb 00:00:06 00:03:58 30° 263° (W) 00:07:51 145.980
DX 1 22 Feb 00:04:32 00:08:48 59° 259° (WSW) 00:13:05 434.975-435.025
YUBILEINY 22 Feb 00:13:59 00:17:08 12° 287° (WNW) 00:20:17 435.215
POLYITAN 1 22 Feb 00:14:09 00:18:14 43° 288° (WNW) 00:22:18 437.675
O/OREOS (USA 219) 22 Feb 00:14:14 00:18:05 28° 302° (WNW) 00:21:58 437.305
QB50P2 22 Feb 00:17:02 00:21:00 37° 289° (WNW) 00:24:57 145.880/145.840
NANOSAT C BR1 22 Feb 00:17:33 00:21:36 43° 288° (WNW) 00:25:38 145.865
UKube-1 22 Feb 00:24:56 00:29:06 48° 260° (W) 00:33:17 .
Oscar 19 22 Feb 00:27:01 00:30:57 22° 93° (E) 00:34:50 437.125/150
50 SAT 22 Feb 00:29:05 00:31:11 15° 267° (W) 00:33:18 437.505
ITUPSAT 1 22 Feb 00:30:18 00:32:56 15° 61° (ENE) 00:35:34 437.325
BEESAT 22 Feb 00:38:57 00:42:10 18° 63° (ENE) 00:45:23 436.000
Gurwin Techsat 1B 22 Feb 00:40:13 00:43:31 16° 91° (E) 00:46:48 435.225
SPROUT 22 Feb 00:40:19 00:42:39 14° 269° (W) 00:45:01 437.525
SO-50 22 Feb 01:02:29 01:04:41 13° 324° (NW) 01:06:54 436.795
RS-15 22 Feb 01:03:36 01:15:10 42° 37° (NE) 01:26:19 29.354- 29.394
PCSat 22 Feb 01:03:57 01:08:55 35° 51° (NE) 01:13:51 145.827
BUGSAT 1 22 Feb 01:05:33 01:09:30 39° 289° (WNW) 01:13:28 437.445
MOZHAYETS 4 22 Feb 01:34:43 01:38:14 22° 65° (ENE) 01:41:45
ITUPSAT 1 22 Feb 02:05:25 02:10:11 68° 257° (WSW) 02:15:01 437.325
Oscar 19 22 Feb 02:05:35 02:10:28 45° 290° (WNW) 02:15:19 437.125/150
BEESAT 22 Feb 02:14:51 02:19:31 53° 260° (W) 02:24:13 436.000
Gurwin Techsat 1B 22 Feb 02:18:37 02:23:53 64° 288° (WNW) 02:29:09 435.225
CUBESAT XI-V 22 Feb 02:25:27 02:27:13 12° 61° (ENE) 02:28:58 437.345
ITAMSAT 1 22 Feb 02:30:40 02:35:20 32° 96° (E) 02:39:57 435.822/435.867
KKS-1 22 Feb 02:34:16 02:37:46 23° 66° (ENE) 02:41:17 437.445
PCSat 22 Feb 02:47:22 02:52:18 36° 249° (WSW) 02:57:12 145.827
AO-7 22 Feb 02:59:16 03:07:08 44° 100° (E) 03:14:55 .
MOZHAYETS 4 22 Feb 03:10:45 03:15:07 40° 262° (W) 03:19:31
RS-15 22 Feb 03:16:29 03:28:44 74° 243° (WSW) 03:40:26 29.354- 29.394
STARS 22 Feb 03:18:54 03:22:42 31° 68° (ENE) 03:26:33 437.465
M-CUBED/EXP-1 PRIME 22 Feb 03:30:03 03:33:02 31° 66° (ENE) 03:35:58 437.505
CUBESAT XI-V 22 Feb 03:59:15 04:03:55 80° 257° (WSW) 04:08:37 437.345
ITAMSAT 1 22 Feb 04:10:06 04:14:45 33° 293° (WNW) 04:19:23 435.822/435.867
KKS-1 22 Feb 04:10:09 04:14:08 33° 262° (W) 04:18:11 437.445
CUTE-I 22 Feb 04:52:07 04:54:22 13° 89° (E) 04:56:36 437.470
AO-7 22 Feb 04:52:08 04:59:52 44° 299° (WNW) 05:07:33 .
STARS 22 Feb 04:55:30 04:59:03 24° 265° (W) 05:02:39 437.465
XW-2F 22 Feb 05:00:53 05:02:20 12° 90° (E) 05:03:47 145.980 - 146.000
AO-85 22 Feb 05:01:29 05:06:05 83° 123° (ESE) 05:10:21 145.980
XW-2D 22 Feb 05:02:43 05:04:39 13° 91° (E) 05:06:35 145.860 - 145.880
KAITUO 1B 22 Feb 05:03:30 05:03:57 10° 90° (E) 05:04:23 145.475/437.950
M-CUBED/EXP-1 PRIME 22 Feb 05:06:00 05:07:38 13° 261° (W) 05:09:17 437.505
XW-2B 22 Feb 05:07:26 05:09:39 15° 92° (E) 05:11:51 145.730 - 145.750
XW-2C 22 Feb 05:15:27 05:18:12 19° 93° (E) 05:20:56 145.795 - 145.815
LilacSat-2 22 Feb 05:27:45 05:31:04 27° 96° (E) 05:34:21 437.200
RS-15 22 Feb 05:32:06 05:38:51 17° 265° (W) 05:45:30 29.354- 29.394
NUDT-PHONESAT 22 Feb 05:40:33 05:43:55 30° 97° (E) 05:47:14 437.300
DOVE 4 22 Feb 05:41:12 05:45:39 45° 99° (E) 05:50:20 437.250
STRAND 1 22 Feb 06:07:04 06:12:06 61° 72° (ENE) 06:17:12 437.568
SO-50 22 Feb 06:10:20 06:13:19 17° 40° (NE) 06:16:17 436.795
XW-2A 22 Feb 06:20:29 06:22:39 16° 93° (E) 06:24:48 145.665 - 145.685
CUTE-I 22 Feb 06:29:38 06:35:03 82° 286° (WNW) 06:40:25 437.470
XW-2F 22 Feb 06:33:04 06:36:46 48° 286° (WNW) 06:40:25 145.980 - 146.000
KAITUO 1B 22 Feb 06:34:36 06:38:19 54° 285° (WNW) 06:41:58 145.475/437.950
XW-2D 22 Feb 06:35:26 06:39:05 42° 287° (WNW) 06:42:41 145.860 - 145.880
XW-2B 22 Feb 06:40:26 06:44:01 38° 288° (WNW) 06:47:33 145.730 - 145.750
AO-85 22 Feb 06:44:34 06:46:58 14° 319° (NW) 06:49:19 145.980
BEESAT 3 22 Feb 06:48:37 06:52:27 62° 120° (ESE) 06:56:22 437.485
XW-2C 22 Feb 06:49:04 06:52:27 30° 290° (WNW) 06:55:49 145.795 - 145.815
AO-7 22 Feb 06:49:15 06:50:28 10° 321° (NW) 06:51:40 .
LilacSat-2 22 Feb 07:02:14 07:05:12 21° 292° (WNW) 07:08:09 437.200
NUDT-PHONESAT 22 Feb 07:14:57 07:17:39 19° 293° (WNW) 07:20:19 437.300
SEEDS 22 Feb 07:15:24 07:19:11 32° 97° (E) 07:22:56 437.485
AAUSAT CUBESAT 2 22 Feb 07:16:40 07:19:20 17° 92° (E) 07:21:58 437.432
BEESAT 2 22 Feb 07:18:37 07:22:27 52° 118° (ESE) 07:26:20 435.950
DOVE 4 22 Feb 07:19:44 07:23:03 20° 294° (WNW) 07:26:31 437.250
CUBEBUG 2 22 Feb 07:26:04 07:30:21 32° 96° (E) 07:34:35 437.445
HO-68 22 Feb 07:29:18 07:36:25 66° 103° (ESE) 07:43:31 435.675
CUTE 1.7 + AOD 2 22 Feb 07:46:20 07:50:34 71° 284° (WNW) 07:54:45 437.475
STRAND 1 22 Feb 07:48:32 07:51:42 16° 269° (W) 07:54:52 437.568
SO-50 22 Feb 07:49:47 07:54:18 74° 238° (WSW) 07:58:45 436.795
XW-2A 22 Feb 07:52:27 07:55:29 29° 289° (WNW) 07:58:31 145.665 - 145.685
AO-73 22 Feb 07:55:52 07:59:26 22° 93° (E) 08:02:56 145.935
Tancredo 1 22 Feb 07:59:46 08:01:52 16° 132° (SE) 08:03:59 437.200
Oscar 11 22 Feb 08:07:15 08:10:47 24° 94° (E) 08:14:17 .
UWE-3 22 Feb 08:11:07 08:15:45 59° 100° (E) 08:20:19 435.000/436.395/437.385
CUTE-I 22 Feb 08:12:13 08:14:13 12° 303° (WNW) 08:16:14 437.470
FO-29 22 Feb 08:19:29 08:24:53 24° 57° (ENE) 08:30:35 435.910
PRISM 22 Feb 08:27:21 08:31:26 79° 76° (ENE) 08:35:31 437.425
BEESAT 3 22 Feb 08:28:00 08:30:28 16° 319° (NW) 08:32:56 437.485
ZACube-1 22 Feb 08:40:34 08:45:10 72° 101° (E) 08:49:40 437.345
O/OREOS (USA 219) 22 Feb 08:43:40 08:48:13 62° 65° (ENE) 08:52:45 437.305
AAUSAT CUBESAT 2 22 Feb 08:51:07 08:54:57 39° 288° (WNW) 08:58:46 437.432
SEEDS 22 Feb 08:51:30 08:54:40 21° 293° (WNW) 08:57:49 437.485
BEESAT 2 22 Feb 08:57:47 09:00:32 18° 317° (NW) 09:03:19 435.950
ISS 22 Feb 09:00:22 09:03:38 62° 141° (SE) 09:06:54 437.550
CUBEBUG 2 22 Feb 09:02:48 09:06:50 28° 292° (WNW) 09:10:51 437.445
UNISAT 6 22 Feb 09:06:13 09:10:40 79° 77° (ENE) 09:15:16 437.425
TIGRISAT 22 Feb 09:07:40 09:12:06 76° 75° (ENE) 09:16:42 435.000
HO-68 22 Feb 09:17:55 09:23:34 26° 302° (WNW) 09:29:13 435.675
YUBILEINY 22 Feb 09:19:35 09:26:46 29° 82° (E) 09:33:56 435.215
DELFI C3 22 Feb 09:20:52 09:24:42 49° 100° (E) 09:28:29 145.870
AO-73 22 Feb 09:31:33 09:35:45 36° 290° (WNW) 09:39:52 145.935
POLYITAN 1 22 Feb 09:33:07 09:35:21 14° 63° (ENE) 09:37:36 437.675
Tancredo 1 22 Feb 09:34:38 09:37:51 60° 328° (NNW) 09:41:05 437.200
QB50P2 22 Feb 09:35:31 09:38:07 16° 64° (ENE) 09:40:42 145.880/145.840
NANOSAT C BR1 22 Feb 09:36:09 09:38:19 14° 63° (ENE) 09:40:28 145.865
Oscar 11 22 Feb 09:43:07 09:46:54 30° 291° (WNW) 09:50:41 .
UWE-3 22 Feb 09:48:53 09:51:41 16° 297° (WNW) 09:54:29 435.000/436.395/437.385
AIST 2D 22 Feb 09:57:43 10:00:56 34° 72° (ENE) 10:04:13 435.315
FO-29 22 Feb 10:02:01 10:08:58 78° 258° (WSW) 10:16:41 435.910
ZACube-1 22 Feb 10:18:47 10:20:48 13° 299° (WNW) 10:22:49 437.345
BUGSAT 1 22 Feb 10:22:11 10:24:11 13° 63° (ENE) 10:26:10 437.445
O/OREOS (USA 219) 22 Feb 10:24:56 10:27:04 13° 262° (W) 10:29:12 437.305
ISS 22 Feb 10:37:31 10:40:19 25° 340° (NNW) 10:43:06 437.550
DUCHIFAT 1 22 Feb 10:43:29 10:47:38 67° 74° (ENE) 10:51:50 145.980
TIGRISAT 22 Feb 10:48:42 10:49:22 10° 272° (W) 10:50:01 435.000
EO-79 22 Feb 10:50:02 10:54:15 86° 257° (WSW) 10:58:31 145.935-145.965
DELFI C3 22 Feb 10:57:08 10:59:04 13° 296° (WNW) 11:00:59 145.870
POLYITAN 1 22 Feb 11:06:31 11:10:40 55° 260° (W) 11:14:52 437.675
ESTCUBE 1 22 Feb 11:08:17 11:12:40 52° 100° (E) 11:17:02 437.505/2401.250
NANOSAT C BR1 22 Feb 11:09:25 11:13:33 56° 260° (W) 11:17:43 145.865
QB50P2 22 Feb 11:09:26 11:13:30 47° 261° (W) 11:17:38 145.880/145.840
Tancredo 1 22 Feb 11:12:18 11:14:39 18° 347° (NNW) 11:17:00 437.200
YUBILEINY 22 Feb 11:14:13 11:22:55 62° 282° (WNW) 11:31:40 435.215
AIST 2D 22 Feb 11:32:21 11:34:18 14° 268° (W) 11:36:16 435.315
Oscar 19 22 Feb 11:43:59 11:48:35 34° 68° (ENE) 11:53:11 437.125/150
VELOX 1 22 Feb 11:48:57 11:53:13 46° 99° (E) 11:57:27 145.980
FO-29 22 Feb 11:51:52 11:55:17 14° 277° (W) 11:58:49 435.910
50 SAT 22 Feb 11:52:09 11:55:17 31° 98° (E) 11:58:24 437.505
DX 1 22 Feb 11:52:44 11:56:09 22° 95° (E) 11:59:33 434.975-435.025
AO-85 22 Feb 11:54:58 11:55:17 10° 36° (NE) 11:55:36 145.980
BUGSAT 1 22 Feb 11:55:07 11:59:03 53° 260° (W) 12:03:05 437.445
Gurwin Techsat 1B 22 Feb 12:01:15 12:05:43 28° 65° (ENE) 12:10:12 435.225
AO-7 22 Feb 12:11:05 12:15:22 15° 45° (NE) 12:19:38 .
UKube-1 22 Feb 12:11:45 12:15:21 25° 96° (E) 12:18:55 .
ISS 22 Feb 12:15:34 12:17:37 15° 0° (N) 12:19:39 437.550
DUCHIFAT 1 22 Feb 12:23:01 12:23:45 10° 271° (W) 12:24:28 145.980
SPROUT 22 Feb 12:23:10 12:27:30 88° 283° (WNW) 12:31:48 437.525
ESTCUBE 1 22 Feb 12:46:16 12:49:03 16° 297° (WNW) 12:51:49 437.505/2401.250
Tancredo 1 22 Feb 12:49:45 12:51:52 16° 8° (N) 12:53:58 437.200
YUBILEINY 22 Feb 13:18:27 13:21:49 12° 305° (NW) 13:25:12 435.215
Oscar 19 22 Feb 13:23:23 13:27:53 30° 264° (W) 13:32:24 437.125/150
50 SAT 22 Feb 13:26:06 13:28:10 15° 294° (WNW) 13:30:13 437.505
VELOX 1 22 Feb 13:26:23 13:29:19 18° 296° (WNW) 13:32:15 145.980
DX 1 22 Feb 13:28:28 13:32:23 33° 291° (WNW) 13:36:17 434.975-435.025
AO-85 22 Feb 13:32:29 13:36:24 74° 57° (ENE) 13:40:21 145.980
Gurwin Techsat 1B 22 Feb 13:40:34 13:45:29 38° 262° (W) 13:50:27 435.225
UKube-1 22 Feb 13:47:37 13:51:20 29° 292° (WNW) 13:55:03 .
ITAMSAT 1 22 Feb 13:48:49 13:53:50 51° 70° (ENE) 13:58:53 435.822/435.867
ISS 22 Feb 13:52:07 13:54:56 25° 20° (NNE) 13:57:43 437.550
AO-7 22 Feb 13:58:18 14:06:29 62° 66° (ENE) 14:14:41 .
ITUPSAT 1 22 Feb 14:05:48 14:10:00 29° 96° (E) 14:14:09 437.325
BEESAT 22 Feb 14:14:32 14:18:58 36° 98° (E) 14:23:21 436.000
Tancredo 1 22 Feb 14:25:45 14:28:50 39° 28° (NNE) 14:31:52 437.200
MOZHAYETS 4 22 Feb 15:05:02 15:09:29 44° 99° (E) 15:13:51
BEESAT 3 22 Feb 15:05:06 15:08:55 40° 51° (NE) 15:12:42 437.485
ISS 22 Feb 15:28:21 15:31:36 60° 218° (SW) 15:34:49 437.550
ITAMSAT 1 22 Feb 15:29:47 15:33:34 20° 267° (W) 15:37:22 435.822/435.867
RS-15 22 Feb 15:33:01 15:39:50 17° 96° (E) 15:46:45 29.354- 29.394
BEESAT 2 22 Feb 15:35:57 15:39:44 36° 51° (NE) 15:43:30 435.950
ITUPSAT 1 22 Feb 15:43:34 15:47:46 31° 293° (WNW) 15:51:56 437.325
PCSat 22 Feb 15:46:32 15:51:01 27° 108° (ESE) 15:55:32 145.827
AO-7 22 Feb 15:52:35 15:59:40 30° 264° (W) 16:06:49 .
BEESAT 22 Feb 15:52:40 15:56:33 25° 294° (WNW) 16:00:24 436.000
CUBESAT XI-V 22 Feb 15:55:54 15:59:39 24° 94° (E) 16:03:22 437.345
XW-2C 22 Feb 15:59:01 16:00:01 11° 63° (ENE) 16:01:01 145.795 - 145.815
KKS-1 22 Feb 16:00:04 16:04:20 42° 99° (E) 16:08:35 437.445
Tancredo 1 22 Feb 16:02:15 16:05:00 26° 224° (SW) 16:07:44 437.200
LilacSat-2 22 Feb 16:10:49 16:13:10 16° 66° (ENE) 16:15:33 437.200
CUTE-I 22 Feb 16:13:28 16:17:35 23° 63° (ENE) 16:21:42 437.470
HO-68 22 Feb 16:18:14 16:18:47 10° 46° (NE) 16:19:20 435.675
NUDT-PHONESAT 22 Feb 16:21:17 16:23:36 16° 66° (ENE) 16:25:55 437.300
M-CUBED/EXP-1 PRIME 22 Feb 16:41:28 16:44:33 24° 102° (ESE) 16:47:48 437.505
MOZHAYETS 4 22 Feb 16:43:00 16:46:18 20° 295° (WNW) 16:49:35
STARS 22 Feb 16:43:15 16:47:37 56° 101° (E) 16:51:59 437.465
BEESAT 3 22 Feb 16:43:24 16:46:14 19° 248° (WSW) 16:49:03 437.485
DOVE 4 22 Feb 16:47:34 16:51:29 43° 72° (ENE) 16:55:26 437.250
XW-2F 22 Feb 17:13:45 17:17:34 81° 78° (ENE) 17:21:26 145.980 - 146.000
BEESAT 2 22 Feb 17:14:12 17:17:17 21° 248° (WSW) 17:20:23 435.950
KAITUO 1B 22 Feb 17:14:28 17:18:15 69° 76° (ENE) 17:22:04 145.475/437.950
XW-2D 22 Feb 17:16:22 17:20:12 88° 252° (WSW) 17:24:05 145.860 - 145.880
XW-2B 22 Feb 17:21:20 17:25:10 80° 258° (WSW) 17:29:03 145.730 - 145.750
PCSat 22 Feb 17:29:00 17:34:11 44° 307° (NW) 17:39:22 145.827
XW-2C 22 Feb 17:29:54 17:33:42 61° 260° (W) 17:37:32 145.795 - 145.815
CUBESAT XI-V 22 Feb 17:32:56 17:37:03 33° 291° (WNW) 17:41:10 437.345
KKS-1 22 Feb 17:37:24 17:40:35 20° 295° (WNW) 17:43:46 437.445
RS-15 22 Feb 17:38:11 17:50:00 74° 117° (ESE) 18:02:18 29.354- 29.394
LilacSat-2 22 Feb 17:43:29 17:47:07 39° 262° (W) 17:50:49 437.200
CUTE-I 22 Feb 17:52:09 17:57:17 49° 260° (W) 18:02:29 437.470
NUDT-PHONESAT 22 Feb 17:53:43 17:57:13 37° 262° (W) 18:00:46 437.300
HO-68 22 Feb 17:58:00 18:04:51 51° 66° (ENE) 18:11:44 435.675
SEEDS 22 Feb 18:07:29 18:10:57 25° 68° (ENE) 18:14:24 437.485
AAUSAT CUBESAT 2 22 Feb 18:08:10 18:10:01 13° 63° (ENE) 18:11:51 437.432
M-CUBED/EXP-1 PRIME 22 Feb 18:15:54 18:18:58 25° 295° (WNW) 18:22:13 437.505
STRAND 1 22 Feb 18:18:01 18:21:47 20° 93° (E) 18:25:32 437.568
STARS 22 Feb 18:20:56 18:23:31 15° 297° (WNW) 18:26:04 437.465
XW-2A 22 Feb 18:23:32 18:26:54 89° 262° (W) 18:30:20 145.665 - 145.685
CUBEBUG 2 22 Feb 18:24:38 18:28:19 27° 67° (ENE) 18:32:06 437.445
DOVE 4 22 Feb 18:27:03 18:29:27 15° 268° (W) 18:31:51 437.250
CUTE 1.7 + AOD 2 22 Feb 18:38:43 18:43:01 83° 78° (ENE) 18:47:19 437.475
AO-73 22 Feb 18:51:59 18:55:03 19° 65° (ENE) 18:58:11 145.935
Oscar 11 22 Feb 19:02:37 19:05:50 21° 66° (ENE) 19:09:04 .
UWE-3 22 Feb 19:08:06 19:12:19 47° 72° (ENE) 19:16:42 435.000/436.395/437.385
YUBILEINY 22 Feb 19:29:40 19:33:53 14° 56° (ENE) 19:38:05 435.215
ZACube-1 22 Feb 19:36:11 19:40:32 57° 73° (ENE) 19:44:58 437.345
AAUSAT CUBESAT 2 22 Feb 19:40:52 19:44:58 60° 259° (W) 19:49:06 437.432
SEEDS 22 Feb 19:42:50 19:46:31 29° 264° (W) 19:50:13 437.485
HO-68 22 Feb 19:46:31 19:52:46 32° 264° (W) 19:59:03 435.675
RS-15 22 Feb 19:52:21 20:03:35 42° 323° (NW) 20:15:10 29.354- 29.394
STRAND 1 22 Feb 19:56:14 20:01:13 50° 289° (WNW) 20:06:10 437.568
CUBEBUG 2 22 Feb 20:00:59 20:04:50 29° 265° (W) 20:08:48 437.445
DELFI C3 22 Feb 20:06:45 20:10:12 29° 70° (ENE) 20:13:40 145.870
AO-73 22 Feb 20:26:42 20:30:56 44° 262° (W) 20:35:16 145.935
Oscar 11 22 Feb 20:37:40 20:41:42 37° 262° (W) 20:45:47 .
UWE-3 22 Feb 20:46:15 20:49:03 16° 269° (W) 20:51:56 435.000/436.395/437.385
UNISAT 6 22 Feb 20:58:31 21:01:37 17° 91° (E) 21:04:42 437.425
TIGRISAT 22 Feb 20:59:53 21:02:52 17° 91° (E) 21:05:50 435.000
FO-29 22 Feb 21:13:17 21:18:19 19° 86° (E) 21:23:04 435.910
ZACube-1 22 Feb 21:14:54 21:17:11 14° 270° (W) 21:19:29 437.345
YUBILEINY 22 Feb 21:23:49 21:32:34 69° 80° (E) 21:41:12 435.215
DELFI C3 22 Feb 21:42:00 21:45:01 21° 266° (W) 21:48:03 145.870
PRISM 22 Feb 21:43:21 21:47:24 66° 285° (WNW) 21:51:25 437.425
SO-50 22 Feb 22:04:21 22:08:31 32° 115° (ESE) 22:12:38 436.795
ESTCUBE 1 22 Feb 22:07:52 22:12:13 49° 72° (ENE) 22:16:35 437.505/2401.250
RS-15 22 Feb 22:11:17 22:20:47 24° 356° (N) 22:30:17 29.354- 29.394
50 SAT 22 Feb 22:27:40 22:29:41 15° 66° (ENE) 22:31:41 437.505
DUCHIFAT 1 22 Feb 22:30:07 22:30:36 10° 89° (E) 22:31:06 145.980
UNISAT 6 22 Feb 22:34:02 22:38:35 50° 288° (WNW) 22:43:06 437.425
TIGRISAT 22 Feb 22:35:15 22:39:51 52° 287° (WNW) 22:44:22 435.000
EO-79 22 Feb 22:35:34 22:38:03 15° 92° (E) 22:40:32 145.935-145.965
VELOX 1 22 Feb 22:46:24 22:50:31 42° 71° (ENE) 22:54:41 145.980
DX 1 22 Feb 22:48:50 22:52:05 21° 65° (ENE) 22:55:19 434.975-435.025
POLYITAN 1 22 Feb 22:51:23 22:54:48 23° 94° (E) 22:58:12 437.675
NANOSAT C BR1 22 Feb 22:53:47 22:57:07 22° 94° (E) 23:00:26 145.865
QB50P2 22 Feb 22:54:03 22:57:41 26° 95° (E) 23:01:16 145.880/145.840
